TimeCST,TemperatureF,Dew PointF,Humidity,Sea Level PressureIn,VisibilityMPH,Wind Direction,Wind SpeedMPH,Gust SpeedMPH,PrecipitationIn,Events,Conditions,WindDirDegrees,DateUTC
12:15 AM,35.6,32.0,87,30.35,10.0,Calm,Calm,-,N/A,,Overcast,0,2013-01-05 06:15:00
12:55 AM,35.6,32.0,87,30.34,10.0,Calm,Calm,-,N/A,,Overcast,0,2013-01-05 06:55:00
1:15 AM,35.6,32.0,87,30.33,10.0,Calm,Calm,-,N/A,,Mostly Cloudy,0,2013-01-05 07:15:00
1:35 AM,35.6,32.0,87,30.33,10.0,Calm,Calm,-,N/A,,Mostly Cloudy,0,2013-01-05 07:35:00
1:55 AM,35.6,32.0,87,30.32,10.0,Calm,Calm,-,N/A,,Overcast,0,2013-01-05 07:55:00
2:15 AM,35.6,32.0,87,30.35,10.0,Calm,Calm,-,N/A,,Overcast,0,2013-01-05 08:15:00
2:35 AM,37.4,32.0,81,30.33,10.0,Calm,Calm,-,N/A,,Overcast,0,2013-01-05 08:35:00
2:55 AM,37.4,32.0,81,30.35,10.0,Calm,Calm,-,N/A,,Overcast,0,2013-01-05 08:55:00
3:15 AM,37.4,32.0,81,30.34,10.0,Calm,Calm,-,N/A,,Overcast,0,2013-01-05 09:15:00
3:35 AM,37.4,32.0,81,30.35,10.0,Calm,Calm,-,N/A,,Overcast,0,2013-01-05 09:35:00
4:15 AM,37.4,32.0,81,30.33,10.0,Calm,Calm,-,N/A,,Overcast,0,2013-01-05 10:15:00
4:35 AM,37.4,33.8,87,30.34,10.0,Calm,Calm,-,N/A,,Overcast,0,2013-01-05 10:35:00
4:55 AM,37.4,33.8,87,30.33,10.0,Calm,Calm,-,N/A,,Overcast,0,2013-01-05 10:55:00
5:15 AM,37.4,33.8,87,30.33,10.0,Calm,Calm,-,N/A,,Overcast,0,2013-01-05 11:15:00
5:35 AM,37.4,33.8,87,30.33,10.0,Calm,Calm,-,N/A,,Overcast,0,2013-01-05 11:35:00
6:15 AM,42.8,28.4,57,30.33,10.0,Calm,Calm,-,N/A,,Overcast,0,2013-01-05 12:15:00
6:35 AM,42.8,28.4,57,30.33,10.0,Calm,Calm,-,N/A,,Overcast,0,2013-01-05 12:35:00
6:55 AM,42.8,28.4,57,30.34,10.0,SSW,4.6,-,N/A,,Overcast,200,2013-01-05 12:55:00
7:15 AM,42.8,28.4,57,30.34,10.0,SSW,3.5,-,N/A,,Overcast,210,2013-01-05 13:15:00
7:35 AM,42.8,28.4,57,30.34,10.0,SSW,4.6,-,N/A,,Overcast,200,2013-01-05 13:35:00
8:15 AM,42.8,30.2,61,30.35,10.0,Calm,Calm,-,N/A,,Overcast,0,2013-01-05 14:15:00
8:35 AM,42.8,30.2,61,30.34,10.0,Calm,Calm,-,N/A,,Overcast,0,2013-01-05 14:35:00
9:15 AM,42.8,30.2,61,30.33,10.0,SSW,3.5,-,N/A,,Overcast,200,2013-01-05 15:15:00
9:35 AM,44.6,32.0,61,30.33,10.0,South,3.5,-,N/A,,Overcast,190,2013-01-05 15:35:00
9:55 AM,44.6,32.0,61,30.33,10.0,SW,3.5,-,N/A,,Overcast,230,2013-01-05 15:55:00
10:15 AM,44.6,32.0,61,30.34,10.0,SW,5.8,-,N/A,,Overcast,230,2013-01-05 16:15:00
10:35 AM,44.6,32.0,61,30.33,10.0,Calm,Calm,-,N/A,,Overcast,0,2013-01-05 16:35:00
10:55 AM,44.6,32.0,61,30.32,10.0,SSW,3.5,-,N/A,,Overcast,200,2013-01-05 16:55:00
11:15 AM,44.6,32.0,61,30.31,10.0,SW,3.5,-,N/A,,Overcast,220,2013-01-05 17:15:00
11:35 AM,46.4,32.0,57,30.29,10.0,SSW,4.6,-,N/A,,Overcast,200,2013-01-05 17:35:00
11:55 AM,46.4,32.0,57,30.28,10.0,SSW,3.5,-,N/A,,Overcast,200,2013-01-05 17:55:00
12:15 PM,46.4,32.0,57,30.27,10.0,SW,6.9,-,N/A,,Overcast,230,2013-01-05 18:15:00
12:35 PM,46.4,33.8,62,30.26,10.0,WSW,8.1,-,N/A,,Overcast,250,2013-01-05 18:35:00
12:55 PM,48.2,33.8,58,30.24,10.0,SSW,6.9,-,N/A,,Overcast,200,2013-01-05 18:55:00
1:15 PM,46.4,33.8,62,30.23,10.0,SSW,6.9,-,N/A,,Mostly Cloudy,200,2013-01-05 19:15:00
1:35 PM,46.4,33.8,62,30.23,10.0,South,8.1,-,N/A,,Overcast,170,2013-01-05 19:35:00
1:55 PM,46.4,33.8,62,30.23,10.0,SSW,4.6,-,N/A,,Overcast,210,2013-01-05 19:55:00
2:15 PM,46.4,33.8,62,30.23,10.0,South,5.8,-,N/A,,Overcast,190,2013-01-05 20:15:00
2:35 PM,46.4,33.8,62,30.23,10.0,SSW,4.6,-,N/A,,Overcast,210,2013-01-05 20:35:00
2:55 PM,46.4,33.8,62,30.23,10.0,SSW,5.8,-,N/A,,Overcast,200,2013-01-05 20:55:00
3:15 PM,46.4,33.8,62,30.23,10.0,SW,3.5,-,N/A,,Overcast,230,2013-01-05 21:15:00
3:35 PM,46.4,33.8,62,30.23,10.0,Calm,Calm,-,N/A,,Overcast,0,2013-01-05 21:35:00
3:55 PM,46.4,33.8,62,30.23,10.0,SSW,3.5,-,N/A,,Overcast,200,2013-01-05 21:55:00
4:15 PM,46.4,35.6,66,30.23,10.0,Calm,Calm,-,N/A,,Overcast,0,2013-01-05 22:15:00
4:35 PM,46.4,35.6,66,30.23,10.0,South,3.5,-,N/A,,Overcast,180,2013-01-05 22:35:00
5:15 PM,44.6,35.6,71,30.22,10.0,Calm,Calm,-,N/A,,Mostly Cloudy,0,2013-01-05 23:15:00
5:35 PM,44.6,33.8,66,30.23,10.0,Calm,Calm,-,N/A,,Mostly Cloudy,0,2013-01-05 23:35:00
5:55 PM,42.8,33.8,70,30.23,10.0,South,3.5,-,N/A,,Mostly Cloudy,190,2013-01-05 23:55:00
6:15 PM,42.8,33.8,70,30.23,10.0,Calm,Calm,-,N/A,,Mostly Cloudy,0,2013-01-06 00:15:00
6:35 PM,41.0,33.8,76,30.24,10.0,Calm,Calm,-,N/A,,Overcast,0,2013-01-06 00:35:00
6:55 PM,42.8,35.6,76,30.24,10.0,Calm,Calm,-,N/A,,Overcast,0,2013-01-06 00:55:00
7:15 PM,44.6,35.6,71,30.24,10.0,Calm,Calm,-,N/A,,Overcast,0,2013-01-06 01:15:00
7:35 PM,42.8,35.6,76,30.24,10.0,South,3.5,-,N/A,,Overcast,170,2013-01-06 01:35:00
7:55 PM,44.6,35.6,71,30.25,10.0,Calm,Calm,-,N/A,,Overcast,0,2013-01-06 01:55:00
8:15 PM,44.6,35.6,71,30.26,10.0,Calm,Calm,-,N/A,,Overcast,0,2013-01-06 02:15:00
8:55 PM,44.6,35.6,71,30.26,10.0,Calm,Calm,-,N/A,,Overcast,0,2013-01-06 02:55:00
9:15 PM,42.8,35.6,76,30.26,10.0,Calm,Calm,-,N/A,,Overcast,0,2013-01-06 03:15:00
9:35 PM,41.0,35.6,81,30.26,10.0,Calm,Calm,-,N/A,,Mostly Cloudy,0,2013-01-06 03:35:00
9:55 PM,41.0,35.6,81,30.26,10.0,Calm,Calm,-,N/A,,Scattered Clouds,0,2013-01-06 03:55:00
10:15 PM,39.2,35.6,87,30.27,10.0,Calm,Calm,-,N/A,,Clear,0,2013-01-06 04:15:00
10:35 PM,37.4,35.6,93,30.27,10.0,Calm,Calm,-,N/A,,Clear,0,2013-01-06 04:35:00
11:15 PM,37.4,35.6,93,30.27,7.0,Calm,Calm,-,N/A,,Clear,0,2013-01-06 05:15:00
11:35 PM,32.0,32.0,100,30.26,5.0,Calm,Calm,-,N/A,,Clear,0,2013-01-06 05:35:00
11:55 PM,32.0,32.0,100,30.27,4.0,Calm,Calm,-,N/A,,Clear,0,2013-01-06 05:55:00